Regional Weather Roundup
Issued by NWS Northern Indiana

Home | Current Version | Previous Version | Text Only | Print | Product List | Glossary On
Versions: 1 2 3 4 5 6 7 8 9 10 11 12 13 14 15 16 17 18 19 20 21 22 23 24 25 26 27 28 29 30 31 32 33 34 35 36 37 38 39 40 41 42 43 44 45 46 47 48 49 50
000
ASUS43 KIWX 060810
RWRIWX

KIWX WEATHER ROUNDUP
NATIONAL WEATHER SERVICE NORTHERN INDIANA
400 AM EDT FRI MAY 06 2016

NOTE: "FAIR" INDICATES FEW OR NO CLOUDS BELOW 12,000 FEET WITH NO
SIGNIFICANT WEATHER AND/OR OBSTRUCTIONS TO VISIBILITY.

* THESE STATIONS ARE NOT UNDER NWS QUALITY CONTROL. THEY ALSO MAY NOT
  REPORT WEATHER SUCH AS PRECIPITATION OR FOG.

INZ001>027-060900-
NORTHERN INDIANA

CITY           SKY/WX    TMP DP  RH WIND       PRES   REMARKS
GARY*          CLEAR     40  40 100 CALM      29.98S FOG
VALPARAISO     CLEAR     40  38  93 W3        29.98S
MICHIGAN CITY* CLEAR     36  36 100 CALM      29.98F FOG
LAPORTE*       CLEAR    N/A N/A N/A CALM      29.97F
KNOX*          CLEAR     37  36  93 CALM      29.97S
SOUTH BEND     CLEAR     37  35  92 NW3       29.97S
GOSHEN         CLEAR     39  35  86 NW5       29.95F
MONTICELLO*    CLEAR     40  37  87 CALM      29.97S
LOGANSPORT*    CLEAR     41  37  87 CALM      29.97F
ROCHESTER*     CLEAR     43  41  93 CALM      29.96F
WARSAW*        CLEAR     39  37  93 W5        29.96S
ANGOLA*          N/A     45  39  81 NW3       29.94S
FORT WAYNE     CLEAR     47  38  71 NW5       29.94F
HUNTINGTON*    CLEAR    N/A N/A N/A NW3       29.94F
PERU/GRISSOM   CLEAR     42  40  93 W6        29.94F
MARION*        CLEAR     44  39  84 CALM      29.96S

$$
INZ028>050-060900-
CENTRAL INDIANA

CITY           SKY/WX    TMP DP  RH WIND       PRES   REMARKS
LAFAYETTE      CLEAR     38  38 100 W5        29.99S FOG
KOKOMO*        CLEAR     43  37  81 W8        29.96S
MUNCIE*        CLEAR     46  40  79 NW5       29.94F
INDIANAPOLIS   PTCLDY    45  39  79 NW9       29.95F

$$
MIZ043>046-050>051-056>058-064>065-071>073-077>080-060900-
SOUTHWEST LOWER MICHIGAN

CITY           SKY/WX    TMP DP  RH WIND       PRES   REMARKS
BATTLE CREEK   CLEAR     43  36  76 W7        29.95S
BENTON HARBOR  CLEAR     36  34  92 CALM      29.97S
COLDWATER*     CLEAR     43  39  85 CALM      29.94S
HILLSDALE*     CLEAR     46  39  76 W3        29.93S
HOLLAND        CLEAR    N/A N/A N/A CALM      29.97S
GRAND RAPIDS   CLEAR     45  38  76 W7        29.95R
KALAMAZOO      CLEAR     43  34  70 CALM      29.95S
STURGIS*       CLEAR     42  35  77 CALM      29.94S
THREE RIVERS*  FAIR      43  36  75 CALM      29.95F

$$
OHZ001>008-015>018-024>025-060900-
NORTHWEST OHIO

CITY           SKY/WX    TMP DP  RH WIND       PRES   REMARKS
WAUSEON*         N/A     45 N/A N/A NW6       29.92S
DEFIANCE       CLEAR     49  41  74 NW8       29.92S
FINDLAY        CLEAR     47  37  68 NW6       29.90S
TOLEDO EXPRESS CLEAR     44  39  82 CALM      29.91S
TOLEDO METCALF CLEAR     46  36  68 NW6       29.92R
LIMA           PTCLDY    48  41  76 N5        29.91S

$$
AND FOR LAKE MICHIGAN COASTAL AND OPEN LAKE BUOY OBSERVATIONS

STATION/POSITION TEMP    WIND        PRES    VSBY  WAVE
                 AIR SEA DIR/SP/G                  HT/PER
                 (F)     (DEG/KT/KT) (MB)    (MI)  (FT/S)
CALUMET HARBOR    46     220/  3/  4 1014.7F
MICHIGAN CITY     43     190/  3/  4   N/A
BURNS HARBOR      45     220/  1/  4 1015.9S
SAINT JOSEPH      45     200/  4/  5 1015.6S
SOUTH LAKE BUOY   42 40  220/  4/  6 1014.7F         1/ 5
4 MI NW BRIDGMAN  45 47                N/A           2/ 5

$$
&&




USA.gov is the U.S. government's official web portal to all federal, state and local government web resources and services.